Location: Capannuccia
(43.7000°N, 11.3000°E)
Time: 18:28:26
(UTC+00:00)

X-37B - Visible Passes

Search period start: 24 July 2021 00:00
Search period end: 03 August 2021 00:00
Orbit: 383 x 392 km, 45.0° (Epoch: 01 July)

Date Brightness Start Highest point End Pass type
(mag) Time Alt. Az. Time Alt. Az. Time Alt. Az.
29 Jul 3.4 03:16:45 10° SSE 03:17:09 10° SE 03:17:33 10° SE visible
31 Jul 2.7 02:54:45 11° S 02:56:47 18° SE 02:59:02 10° E visible
01 Aug 3.3 01:58:58 10° SE 01:58:58 10° SE 01:59:09 10° SE visible
01 Aug 1.2 03:31:39 10° SW 03:34:45 48° SSE 03:37:51 10° E visible
02 Aug 1.8 02:35:26 24° S 02:36:29 29° SSE 02:39:20 10° E visible
